COSMOS 2510

Satellite information

Favourite Embed

Satellite Type and Status

PAYLOADIN ORBIT

Key statistics

Satellite COSMOS 2510 at a glance.

Uptime

3583

Days in orbit

Revolutions

≈ 2.0

Per day

Orbit

HEO

HEO

Inclination

63.2

Latest

Satellite identification and parameters

Extended collection of information and parameters for COSMOS 2510.

Object identification

Identified? True

Debris? False

Object name: COSMOS 2510

International designator: 2015-066A

Object number (NORAD): 41032

Object ID (CCSDS): 41032

Country: COMMONWEALTH OF INDEPENDENT STATES (CIS)

Current information (Y/N): Y

RCS size: LARGE

Orbital parameters

Period: 718.511 minutes

Inclination: 63.1851 deg

SMA: 26573.514 km

Apoapsis: 39316.239 km

Periapsis: 1074.519 km

RAAN: 28.5939 deg

Eccentricy: 0.7195458

Argument of periapsis: 273.6846 deg

Mean anomaly: 14.2516 deg

Mean motion: 2.00414566 rev/day

Mean motion (dot): 0.00001257 rev/day2

B* drag term: 0.0 1/REarth

Two-line elements (TLE)

Creation date: Aug. 16, 2025, 11:36 a.m.

Reference frame: TEME

Reference center: EARTH

Epoch: Aug. 15, 2025, 2:55 p.m. UTC

TLE line 0: 0 COSMOS 2510

TLE line 1: 1 41032U 15066A 25227.62198341 .00001257 00000-0 00000+0 0 9994

TLE line 2: 2 41032 63.1851 28.5939 7195458 273.6846 14.2516 2.00414566 71383

Live tracking on map

Real-time ground track for satellite COSMOS 2510.

In-orbit conjunctions

There are no conjunctions computed for COSMOS 2510, at the moment. Check back to stay up to date, as we update our databases every day.

Go to all conjunctions

Associated space launch

The Tundra or EKS (meaning Unified Space System) series of satellites is the next generation of Russian early warning satellites.

COSMOS 2510 was lifted into orbit during the mission ‘Soyuz-2.1b/Fregat | EKS (Tundra) (Kosmos 2510)’, on board a Soyuz 2.1b/Fregat space rocket.

The launch took place on Nov. 17, 2015, 6:33 a.m. from 43/4 (43R).

For more information about the launch, click the button.

Launch to space Soyuz-2.1b/Fregat | EKS (Tundra) (Kosmos 2510)
Soyuz-2.1b/Fregat | EKS (Tundra) (Kosmos 2510)

Agency: N/A

Status: Launch Successful

Launch date: Nov. 17, 2015, 6:33 a.m. UTC

Rocket: Soyuz 2.1b/Fregat

Launch pad: 43/4 (43R)

Location: Plesetsk Cosmodrome, Russian Federation

...

Latest news about this satellite

There are no fresh news available about this satellite. Check back as we update our databases every day.


Newsletter sign-up

Weekly statistics, charts and insights to help you stay on top of the space industry.